This is the latest recevied weather packets stored in our database for station/object YO2KCB-10. If no packets are shown the sender has not sent any weather packets the latest 10 day(s).
| Time | Temp. | Humidity | Pressure | Rain* | Wind** | Luminosity | Snow |
|---|---|---|---|---|---|---|---|
| 1777792321 | 12.78° C | 34% | 1021.5 hPa | - | - | - | - |
| 1777791121 | 12.78° C | 35% | 1021.4 hPa | - | - | - | - |
| 1777789921 | 12.22° C | 34% | 1021.4 hPa | - | - | - | - |
| 1777788721 | 11.67° C | 34% | 1021.3 hPa | - | - | - | - |
| 1777787521 | 11.11° C | 35% | 1021.2 hPa | - | - | - | - |
| 1777786321 | 10.56° C | 34% | 1021.1 hPa | - | - | - | - |
| 1777785121 | 10° C | 34% | 1020.9 hPa | - | - | - | - |
| 1777783920 | 9.44° C | 34% | 1020.8 hPa | - | - | - | - |
| 1777782720 | 8.89° C | 33% | 1020.8 hPa | - | - | - | - |
| 1777781520 | 8.33° C | 34% | 1020.5 hPa | - | - | - | - |
| 1777780320 | 8.33° C | 35% | 1020.3 hPa | - | - | - | - |
| 1777779120 | 8.89° C | 34% | 1020.1 hPa | - | - | - | - |
| 1777777920 | 8.89° C | 33% | 1020 hPa | - | - | - | - |
| 1777776719 | 9.44° C | 33% | 1020 hPa | - | - | - | - |
| 1777775519 | 9.44° C | 33% | 1019.8 hPa | - | - | - | - |
| 1777774319 | 10° C | 33% | 1019.6 hPa | - | - | - | - |
| 1777773119 | 10° C | 33% | 1019.6 hPa | - | - | - | - |
| 1777771919 | 10° C | 33% | 1019.5 hPa | - | - | - | - |
| 1777770718 | 10.56° C | 33% | 1019.4 hPa | - | - | - | - |
| 1777769518 | 10.56° C | 33% | 1019.4 hPa | - | - | - | - |
| 1777768318 | 11.11° C | 33% | 1019.4 hPa | - | - | - | - |
| 1777767118 | 11.11° C | 33% | 1019.3 hPa | - | - | - | - |
| 1777765918 | 11.67° C | 33% | 1019.2 hPa | - | - | - | - |
| 1777764717 | 11.67° C | 32% | 1019.2 hPa | - | - | - | - |
| 1777763517 | 12.22° C | 32% | 1019.3 hPa | - | - | - | - |
* Rain since midnight (hover to see other rain measurements)
** Current wind speed in m/s (hover to see current wind gust speed)